Terminal Aerodrome Forecast
Issued by NWS

Home | Current Version | Previous Version | Text Only | Print | Product List | Glossary On
Versions: 1 2 3 4 5 6 7 8 9 10 11 12 13 14 15 16 17 18 19 20 21 22 23 24 25 26 27 28 29 30 31 32 33 34 35 36 37 38 39 40 41
000
FTAK31 PAFA 050059 AAA
TAFATA
TAF AMD
PATA 050059Z 0501/0524 10006KT 4SM FU OVC090
     FM050900 VRB04KT 1 1/2SM FU SCT015 OVC100=

USA.gov is the U.S. government's official web portal to all federal, state and local government web resources and services.